[[{"header":{"parameterUnit":"m.s-1","parameterCategory":1,"la1":30.2991,"la2":30.254,"lo1":-89.0895,"lo2":-89.0444,"dy":0.0017,"dx":0.0017,"nx":28,"ny":28,"refTime":"2024-06-01T03:00:00:Z","depth":0,"parameterNumber":2,"parameterNumberName":"U-component_of_WINDS"},"data":[0,0,0,0,0,0,0,0,0,0,0,0,0,0,0,0,0,0,0,0,0,0,0,0,0,0,0,0,0,0,0,0,0,0,0,0,0,0,0,0,0,0,0,0,0,0,0,0,0,0,0,0,0,0,0,0,0,0,-1.8284,-1.8284,0,-1.8278,-1.8278,-1.8278,-1.8281,-1.8281,-1.8281,-1.8281,-1.8274,-1.8274,-1.8274,0,0,0,0,0,0,0,0,0,0,0,0,0,-1.8297,-1.8297,-1.8284,-1.8284,-1.8284,-1.8278,-1.8278,-1.8278,-1.8281,-1.8281,-1.8281,-1.8282,-1.8274,-1.8274,-1.8274,0,0,0,0,0,0,0,0,0,0,0,0,0,-1.8292,-1.8297,-1.8284,-1.8285,-1.8285,-1.8278,-1.8278,-1.8278,-1.8281,-1.8281,-1.8281,-1.8282,-1.8274,-1.8274,-1.8273,-1.8266,0,0,-1.8272,-1.8272,0,0,0,0,0,0,0,0,-1.8292,-1.8291,-1.8285,-1.8285,-1.8285,-1.8281,-1.828,-1.8274,-1.8281,-1.8282,-1.8281,-1.8282,-1.8276,-1.8275,-1.8274,-1.8265,-1.8265,-1.8272,-1.8272,-1.8271,-1.8271,0,0,0,0,0,0,0,-1.8292,-1.8291,-1.8282,-1.8285,-1.8285,-1.8285,-1.8285,-1.8279,-1.8278,-1.8282,-1.8283,-1.8282,-1.8276,-1.8274,-1.8274,-1.8265,-1.8272,-1.8271,-1.8271,-1.8271,-1.825,-1.825,0,0,0,0,0,0,-1.8293,-1.8292,-1.8282,-1.8282,-1.8289,-1.8285,-1.8284,-1.8282,-1.8278,-1.8278,-1.8282,-1.8282,-1.8275,-1.8274,-1.8273,-1.8264,-1.8271,-1.8271,-1.8271,-1.8251,-1.825,-1.825,0,0,0,0,0,0,-1.8293,-1.8292,-1.8282,-1.8287,-1.8286,-1.8284,-1.8282,-1.8282,-1.828,-1.8278,-1.8277,-1.828,-1.8275,-1.8274,-1.8268,-1.8264,-1.8271,-1.827,-1.8251,-1.825,-1.825,-1.8246,0,0,0,0,0,0,-1.8293,-1.8292,-1.8289,-1.8287,-1.8285,-1.8277,-1.8281,-1.8281,-1.8279,-1.8279,-1.8276,-1.8276,-1.8275,-1.8269,-1.8267,-1.8263,-1.827,-1.8251,-1.8251,-1.825,-1.8246,-1.8245,-1.8244,0,0,0,0,0,-1.8294,-1.8288,-1.8289,-1.8288,-1.8282,-1.8277,-1.8276,-1.8276,-1.8279,-1.8276,-1.8275,-1.8276,-1.8265,-1.8268,-1.8267,-1.8262,-1.8251,-1.8251,-1.825,-1.8246,-1.8245,-1.8244,0,0,0,0,0,0,-1.8289,-1.8287,-1.8289,-1.8282,-1.8279,-1.8277,-1.8273,-1.8275,-1.8271,-1.8272,-1.8272,-1.8271,-1.8264,-1.8263,-1.8266,-1.8255,-1.8258,-1.8258,-1.8256,-1.8255,-1.8254,-1.8254,-1.8269,0,0,0,0,0,-1.8287,-1.8284,-1.8282,-1.8276,-1.8275,-1.8275,-1.8272,-1.8273,-1.827,-1.8269,-1.8267,-1.8265,-1.8261,-1.8258,-1.8254,-1.8246,-1.8245,-1.8243,-1.8242,-1.8241,-1.824,-1.8236,-1.8235,-1.8248,-1.8248,-1.8248,0,0,-1.8283,-1.8282,-1.828,-1.8275,-1.8274,-1.827,-1.8274,-1.8269,-1.8266,-1.8268,-1.8262,-1.8261,-1.8258,-1.8251,-1.8248,-1.8249,-1.8236,-1.824,-1.824,-1.8239,-1.8235,-1.8234,-1.8233,-1.8248,-1.8248,-1.8248,0,0,-1.8274,-1.8273,-1.8268,-1.8266,-1.8264,-1.8264,-1.8262,-1.826,-1.826,-1.8254,-1.8255,-1.8252,-1.8245,-1.8242,-1.824,-1.8231,-1.8232,-1.823,-1.8225,-1.8221,-1.822,-1.8219,-1.8215,-1.8214,-1.8229,-1.8229,-1.8229,0,-1.8269,-1.8263,-1.8265,-1.826,-1.8258,-1.8261,-1.8256,-1.8254,-1.825,-1.8249,-1.8251,-1.8243,-1.8241,-1.8233,-1.8231,-1.8229,-1.8228,-1.823,-1.822,-1.8219,-1.8218,-1.8215,-1.8213,-1.8229,-1.8229,-1.8229,-1.8229,0,-1.8257,-1.8254,-1.825,-1.8247,-1.8244,-1.8239,-1.824,-1.8237,-1.8238,-1.8238,-1.8232,-1.823,-1.8226,-1.8224,-1.8225,-1.8217,-1.8218,-1.822,-1.8224,-1.8217,-1.8213,-1.8212,-1.8229,-1.8229,-1.8229,-1.8229,0,0,-1.8244,-1.8242,-1.8241,-1.8239,-1.8237,-1.8234,-1.823,-1.8226,-1.8224,-1.8222,-1.8217,-1.8212,-1.8214,-1.8212,-1.8213,-1.8209,-1.8202,-1.8212,-1.8212,-1.8209,-1.8193,-1.819,-1.8189,-1.8203,-1.8203,-1.8202,-1.8193,0,-1.8234,-1.8226,-1.8227,-1.8219,-1.8216,-1.8219,-1.8215,-1.8213,-1.8213,-1.821,-1.8209,-1.8205,-1.8209,-1.8207,-1.8204,-1.8203,-1.8198,-1.8204,-1.8198,-1.8198,-1.8198,-1.8187,-1.8185,-1.8176,-1.8192,-1.8191,-1.8191,0,-1.8221,-1.8218,-1.821,-1.8209,-1.8208,-1.8204,-1.8201,-1.8198,-1.8197,-1.8197,-1.8195,-1.8196,-1.8192,-1.8196,-1.8189,-1.8193,-1.8191,-1.8191,-1.819,-1.8189,-1.8194,-1.8185,-1.8173,-1.8171,-1.8189,-1.8189,-1.819,0,-1.8211,-1.8206,-1.82,-1.8199,-1.8198,-1.8196,-1.8195,-1.8194,-1.8192,-1.8189,-1.8188,-1.8185,-1.8183,-1.818,-1.8181,-1.8184,-1.8174,-1.8179,-1.8174,-1.8174,-1.817,-1.817,-1.8157,-1.8171,-1.8171,-1.8171,-1.8171,0,-1.8199,-1.8193,-1.8196,-1.8192,-1.8187,-1.8189,-1.8183,-1.8183,-1.8182,-1.8178,-1.8181,-1.8178,-1.8179,-1.8176,-1.8176,-1.817,-1.817,-1.8169,-1.8169,-1.8169,-1.8169,-1.8166,-1.8167,-1.817,-1.817,-1.817,-1.817,0,-1.8186,-1.8187,-1.8182,-1.8182,-1.8181,-1.8177,-1.8177,-1.8174,-1.8174,-1.817,-1.8169,-1.817,-1.8166,-1.8167,-1.8162,-1.8163,-1.8155,-1.8157,-1.8156,-1.8156,-1.8151,-1.8151,-1.8135,-1.8132,-1.8148,-1.8148,-1.8148,0,-1.8178,-1.8174,-1.8174,-1.8172,-1.8171,-1.8168,-1.8166,-1.8168,-1.8166,-1.8165,-1.8162,-1.8158,-1.8156,-1.815,-1.8149,-1.8146,-1.8147,-1.8142,-1.8146,-1.8146,-1.8146,-1.8146,-1.8146,-1.814,-1.814,-1.814,-1.814,0,-1.8163,-1.8164,-1.8161,-1.8159,-1.8157,-1.8156,-1.8154,-1.8152,-1.8155,-1.8152,-1.8149,-1.8147,-1.8143,-1.814,-1.8137,-1.8136,-1.8138,-1.8139,-1.8137,-1.8136,-1.8135,-1.8135,-1.8152,-1.8139,-1.8139,-1.8139,-1.8139,-1.8139,-1.8151,-1.8148,-1.8148,-1.8145,-1.8144,-1.8143,-1.814,-1.8141,-1.8138,-1.8135,-1.8137,-1.8133,-1.8132,-1.8129,-1.8128,-1.8125,-1.8127,-1.8125,-1.8124,-1.8123,-1.8122,-1.8137,-1.8124,-1.8124,-1.8124,-1.8124,-1.8124,0,-1.8136,-1.8136,-1.8134,-1.8132,-1.813,-1.8133,-1.8132,-1.813,-1.8126,-1.8126,-1.8123,-1.8119,-1.8117,-1.8117,-1.8114,-1.8111,-1.8112,-1.811,-1.811,-1.811,-1.8121,-1.8122,-1.811,-1.811,-1.811,-1.811,-1.811,-1.811,-1.8127,-1.8122,-1.8123,-1.8118,-1.8118,-1.8115,-1.8114,-1.8113,-1.8112,-1.8108,-1.8106,-1.8106,-1.8106,-1.8103,-1.8101,-1.8101,-1.8099,-1.8097,-1.8098,-1.8108,-1.8109,-1.811,-1.8112,-1.8097,-1.8097,-1.8087,-1.8086,-1.8086]},{"header":{"parameterUnit":"m.s-1","parameterCategory":1,"la1":30.2991,"la2":30.254,"lo1":-89.0895,"lo2":-89.0444,"dy":0.0017,"dx":0.0017,"nx":28,"ny":28,"refTime":"2024-06-01T03:00:00:Z","depth":0,"parameterNumber":3,"parameterNumberName":"V-component_of_WINDS"},"data":[0,0,0,0,0,0,0,0,0,0,0,0,0,0,0,0,0,0,0,0,0,0,0,0,0,0,0,0,0,0,0,0,0,0,0,0,0,0,0,0,0,0,0,0,0,0,0,0,0,0,0,0,0,0,0,0,0,0,4.0001,4.0,0,3.9891,3.9889,3.9888,3.9783,3.9782,3.9781,3.9779,3.9661,3.9659,3.9657,0,0,0,0,0,0,0,0,0,0,0,0,0,4.0117,4.0116,4.0001,4.0,3.9999,3.9891,3.9889,3.9888,3.9783,3.9782,3.978,3.9779,3.9661,3.9659,3.9657,0,0,0,0,0,0,0,0,0,0,0,0,0,4.0043,4.0115,4.0001,3.9934,3.9926,3.9891,3.9889,3.9887,3.9784,3.9782,3.978,3.9778,3.9662,3.9659,3.9656,3.9678,0,0,3.9648,3.9646,0,0,0,0,0,0,0,0,4.0047,4.0039,3.9945,3.9938,3.993,3.9849,3.9887,3.9817,3.9784,3.9838,3.9779,3.9777,3.9725,3.9716,3.97,3.9672,3.9667,3.9647,3.9646,3.9644,3.9643,0,0,0,0,0,0,0,4.0053,4.0043,3.9957,3.9944,3.9935,3.9907,3.9894,3.9873,3.9793,3.9833,3.9825,3.9814,3.972,3.9703,3.9696,3.9665,3.9647,3.9645,3.9643,3.9642,3.965,3.9652,0,0,0,0,0,0,4.0069,4.0048,3.9961,3.9954,3.9985,3.9907,3.9892,3.9877,3.9793,3.9779,3.9815,3.9809,3.9709,3.97,3.9692,3.9711,3.9644,3.9642,3.964,3.9648,3.965,3.9653,0,0,0,0,0,0,4.0072,4.0062,3.9965,3.9999,3.9984,3.9907,3.989,3.9876,3.9858,3.978,3.9765,3.9813,3.9707,3.9696,3.9682,3.9706,3.964,3.9638,3.9646,3.9649,3.9651,3.9751,0,0,0,0,0,0,4.0075,4.0064,4.0072,4.0,3.9983,3.996,3.9891,3.9875,3.9854,3.9845,3.9774,3.976,3.9704,3.9687,3.968,3.9701,3.9635,3.9643,3.9647,3.9651,3.9745,3.9757,3.9767,0,0,0,0,0,4.008,4.0103,4.0073,4.0063,3.9992,3.9961,3.9951,3.9889,3.9857,3.9864,3.9814,3.9762,3.9705,3.9687,3.9677,3.9698,3.9641,3.9646,3.965,3.9741,3.9755,3.9767,0,0,0,0,0,0,4.0178,4.0092,4.0058,4.0059,4.0019,3.9944,3.9951,3.9906,3.9872,3.9865,3.9786,3.9771,3.9767,3.973,3.9712,3.9714,3.9666,3.9669,3.9738,3.9751,3.9762,3.977,3.9633,0,0,0,0,0,4.02,4.0184,4.0109,4.0117,4.0099,4.0029,4.0013,3.9968,3.9922,3.9904,3.9853,3.9809,3.9781,3.9764,3.9733,3.974,3.9722,3.9749,3.976,3.9769,3.9772,3.9773,3.9784,3.9667,3.9667,3.9667,0,0,4.0245,4.0196,4.019,4.0136,4.0099,4.0083,4.0015,4.0,3.9986,3.9901,3.9886,3.9847,3.9793,3.979,3.9786,3.9759,3.9801,3.9775,3.9783,3.9781,3.9779,3.979,3.98,3.967,3.9669,3.9669,0,0,4.0318,4.028,4.0282,4.0248,4.0194,4.0147,4.0148,4.0081,4.0052,4.0036,3.9972,3.9954,3.9908,3.9872,3.9847,3.9909,3.986,3.9901,3.9957,3.9959,3.9968,3.9976,3.9998,4.0007,3.9904,3.9905,3.9905,0,4.038,4.0354,4.0289,4.0279,4.0256,4.0181,4.0182,4.0151,4.009,4.0075,4.0047,3.9988,3.9946,3.9934,3.9949,3.9932,3.993,3.9908,3.9973,3.998,3.9986,4.0006,4.0014,3.991,3.9909,3.9909,3.9908,0,4.0433,4.0416,4.0424,4.0369,4.0348,4.0344,4.0277,4.0263,4.022,4.0177,4.0161,4.0109,4.0067,4.0061,4.0018,4.0042,4.0028,3.9988,3.9937,4.0004,4.0021,4.0028,3.9918,3.9916,3.9914,3.9913,0,0,4.0563,4.0474,4.0478,4.0452,4.0388,4.0373,4.0365,4.0326,4.0316,4.0276,4.0267,4.023,4.0193,4.0165,4.0118,4.012,4.0172,4.0079,4.0076,4.0098,4.0195,4.0226,4.0236,4.014,4.0141,4.0142,4.02,0,4.0625,4.0608,4.055,4.055,4.0534,4.0462,4.0455,4.0415,4.0374,4.0352,4.0306,4.0282,4.0234,4.0217,4.0216,4.0166,4.019,4.0161,4.0129,4.0129,4.0145,4.0245,4.0277,4.0335,4.0206,4.0207,4.0208,0,4.0695,4.0663,4.0662,4.0599,4.059,4.0585,4.0545,4.0526,4.0478,4.0448,4.0419,4.0367,4.0354,4.0308,4.0288,4.027,4.0253,4.0227,4.0228,4.0222,4.0173,4.0242,4.0351,4.036,4.0218,4.0217,4.0217,0,4.0791,4.0746,4.074,4.0721,4.0647,4.0646,4.0615,4.0565,4.0546,4.051,4.0497,4.046,4.044,4.0411,4.0351,4.0323,4.0338,4.0287,4.0311,4.0313,4.0317,4.0317,4.0425,4.0307,4.0307,4.0307,4.0307,0,4.0866,4.0868,4.0783,4.0779,4.0779,4.0712,4.0714,4.0676,4.0633,4.0619,4.0554,4.0543,4.0464,4.0443,4.0395,4.0386,4.0377,4.0351,4.0339,4.0357,4.0361,4.0345,4.0339,4.0309,4.0309,4.0308,4.0308,0,4.0972,4.0915,4.0904,4.0836,4.0819,4.0823,4.0764,4.0757,4.0713,4.0697,4.0689,4.0619,4.0592,4.0529,4.0483,4.0451,4.0454,4.0431,4.0471,4.0463,4.0491,4.049,4.0593,4.0603,4.0479,4.048,4.0481,0,4.1024,4.1024,4.0958,4.0945,4.0918,4.0898,4.0879,4.0812,4.0795,4.0741,4.0741,4.0708,4.0679,4.0638,4.0582,4.0547,4.0522,4.0561,4.0516,4.0536,4.0523,4.0524,4.0523,4.0571,4.0572,4.0574,4.0575,0,4.1122,4.1094,4.107,4.1036,4.1015,4.0985,4.095,4.0944,4.0869,4.0852,4.0824,4.0802,4.0757,4.0725,4.0682,4.0648,4.0599,4.059,4.0593,4.0612,4.0636,4.0624,4.0498,4.0587,4.0586,4.0585,4.0584,4.0584,4.1202,4.1199,4.1153,4.1128,4.1096,4.1066,4.1057,4.1012,4.0988,4.0948,4.091,4.0886,4.0838,4.0776,4.0745,4.0724,4.07,4.0705,4.0706,4.0709,4.0717,4.064,4.0716,4.0716,4.0715,4.0715,4.0715,0,4.1297,4.1264,4.1242,4.1197,4.1178,4.1135,4.1095,4.1081,4.1062,4.1022,4.0996,4.0964,4.0933,4.0876,4.084,4.0834,4.0811,4.0827,4.0827,4.082,4.0741,4.0742,4.0847,4.0847,4.0847,4.0847,4.0847,4.0847,4.1344,4.1337,4.1304,4.1281,4.1247,4.1225,4.1206,4.1178,4.1146,4.1114,4.1089,4.1053,4.1006,4.0966,4.0936,4.092,4.091,4.0933,4.091,4.0838,4.0825,4.0813,4.0813,4.0932,4.0932,4.099,4.0991,4.0991]}]]